Morris, MN

3:51 AM CDT on March 25, 2017 (GMT -0500)
Morris Municipal

Weather History for KMOX - February, 2013

Change the Weather History Date:

Tuesday, February 5, 2013

  Actual Average Record
Temperature  
Mean Temperature 19 °F -  
Max Temperature 32 °F 22 °F 48 °F (2005)
Min Temperature 6 °F 5 °F -18 °F (2007)
Degree Days  
Heating Degree Days 46    
Moisture  
Dew Point 12 °F    
Average Humidity 85    
Maximum Humidity 100    
Minimum Humidity 73    
Precipitation  
Precipitation 0.00 in - - ()
Sea Level Pressure  
Sea Level Pressure 29.86 in    
Wind  
Wind Speed 13 mph (NW)    
Max Wind Speed 25 mph    
Max Gust Speed 30 mph    
Visibility 7 miles    
Events Snow    
Averages and records for this station are not official NWS values.
T = Trace of Precipitation, MM = Missing Value Source: NWS Daily Summary

Daily Weather History Graph

Daily Weather History Graph

Search for Another Location

Airport or City:

Trip Planner

Search our weather history database for the weather conditions in past years. The results will help you decide how hot, cold, wet, or windy it might be!

Date:

Astronomy

Feb. 05, 2013 Rise Set
Actual Time 7:39 AM CST 5:36 PM CST
Civil Twilight 7:08 AM CST 6:08 PM CST
Nautical Twilight 6:33 AM CST 6:43 PM CST
Astronomical Twilight 5:58 AM CST 7:17 PM CST
Moon 3:28 AM CST (2/5) 12:49 PM CST (2/5)
Length of Visible Light 10h 59m
Length of Day
9h 57m
Waning Crescent, 26% of the Moon is Illuminated
Feb 5
Waning Crescent
Feb 10
New
Feb 17
First Quarter
Feb 25
Full
Mar 4
Last Quarter

Hourly Weather History & Observations

Time (CST) Temp. Windchill Dew Point Humidity Pressure Visibility Wind Dir Wind Speed Gust Speed Precip Events Conditions
12:12 AM 17.6 °F 5.0 °F 14.0 °F 86% 29.62 in 10.0 mi South 11.5 mph - N/A   Clear
12:33 AM 15.8 °F 3.4 °F 14.0 °F 93% 29.62 in 10.0 mi South 10.4 mph - N/A   Clear
12:53 AM 15.8 °F 6.1 °F 12.2 °F 86% 29.62 in 10.0 mi SSW 6.9 mph - N/A   Scattered Clouds
1:12 AM 17.6 °F 8.2 °F 15.8 °F 93% 29.62 in 10.0 mi SSW 6.9 mph - N/A   Mostly Cloudy
1:33 AM 19.4 °F 11.5 °F 17.6 °F 93% 29.61 in 10.0 mi SW 5.8 mph - N/A   Overcast
1:52 AM 23.0 °F 13.1 °F 19.4 °F 86% 29.62 in 10.0 mi West 9.2 mph - N/A   Overcast
2:13 AM 24.8 °F 14.0 °F 21.2 °F 86% 29.62 in 5.0 mi West 11.5 mph - N/A Snow Light Snow
2:33 AM 26.6 °F 16.2 °F 24.8 °F 93% 29.62 in 4.0 mi West 11.5 mph - N/A Snow Light Snow
2:53 AM 28.4 °F 18.0 °F 26.6 °F 93% 29.62 in 2.5 mi WNW 12.7 mph - N/A Snow Light Snow
3:12 AM 30.2 °F 19.8 °F 28.4 °F 93% 29.61 in 2.5 mi WNW 13.8 mph - N/A Snow Light Snow
3:33 AM 30.2 °F 19.3 °F 30.2 °F 100% 29.62 in 5.0 mi WNW 15.0 mph - N/A   Overcast
3:53 AM 32.0 °F 22.1 °F 30.2 °F 93% 29.62 in 7.0 mi WNW 13.8 mph - N/A   Overcast
4:12 AM 30.2 °F 20.2 °F 30.2 °F 100% 29.64 in 4.0 mi NW 12.7 mph - N/A Snow Light Snow
4:33 AM 30.2 °F 20.2 °F 30.2 °F 100% 29.65 in 5.0 mi NW 12.7 mph - N/A Snow Light Snow
4:52 AM 30.2 °F 18.5 °F 28.4 °F 93% 29.66 in 3.0 mi NW 17.3 mph 24.2 mph N/A Snow Light Snow
5:13 AM 30.2 °F 18.5 °F 28.4 °F 93% 29.68 in 4.0 mi NW 17.3 mph 21.9 mph N/A Snow Light Snow
5:33 AM 30.2 °F 19.3 °F 28.4 °F 93% 29.68 in 7.0 mi NW 15.0 mph - N/A Snow Light Snow
5:53 AM 30.2 °F 18.9 °F 28.4 °F 93% 29.69 in 5.0 mi NW 16.1 mph 20.7 mph N/A   Overcast
6:13 AM 30.2 °F 18.9 °F 26.6 °F 86% 29.69 in 4.0 mi NW 16.1 mph 21.9 mph N/A Snow Light Snow
6:32 AM 28.4 °F 15.8 °F 26.6 °F 93% 29.70 in 5.0 mi NW 18.4 mph - N/A Snow Light Snow
6:53 AM 28.4 °F 15.8 °F 26.6 °F 93% 29.71 in 7.0 mi NW 18.4 mph - N/A   Overcast
7:13 AM 28.4 °F 14.7 °F 26.6 °F 93% 29.73 in 5.0 mi NW 21.9 mph 26.5 mph N/A   Overcast
7:32 AM 24.8 °F 12.9 °F 21.2 °F 86% 29.74 in 5.0 mi NNW 13.8 mph - N/A   Overcast
7:53 AM 21.2 °F 5.2 °F 17.6 °F 86% 29.77 in 2.5 mi NNW 21.9 mph 26.5 mph N/A   Overcast
8:12 AM 19.4 °F 2.8 °F 15.8 °F 86% 29.78 in 4.0 mi NNW 21.9 mph - N/A   Overcast
8:33 AM 15.8 °F -1.5 °F 12.2 °F 86% 29.81 in 3.0 mi NNW 20.7 mph - N/A   Overcast
8:53 AM 15.8 °F -1.9 °F 12.2 °F 86% 29.82 in 3.0 mi NNW 21.9 mph - N/A   Overcast
9:12 AM 15.8 °F -2.3 °F 12.2 °F 86% 29.84 in 4.0 mi NNW 23.0 mph 28.8 mph N/A   Overcast
9:32 AM 15.8 °F -3.1 °F 12.2 °F 86% 29.85 in 2.5 mi NNW 25.3 mph - N/A   Overcast
9:53 AM 15.8 °F -1.1 °F 12.2 °F 86% 29.87 in 4.0 mi NNW 19.6 mph - N/A   Overcast
10:13 AM 15.8 °F -2.3 °F 10.4 °F 79% 29.88 in 2.5 mi NNW 23.0 mph 29.9 mph N/A   Overcast
10:32 AM 15.8 °F -1.1 °F 10.4 °F 79% 29.89 in 4.0 mi NNW 19.6 mph 25.3 mph N/A   Haze
10:53 AM 14.0 °F -2.5 °F 8.6 °F 79% 29.91 in 5.0 mi NNW 17.3 mph - N/A   Haze
11:13 AM 14.0 °F -3.0 °F 8.6 °F 79% 29.92 in 7.0 mi NNW 18.4 mph - N/A   Overcast
11:32 AM 14.0 °F -3.4 °F 8.6 °F 79% 29.93 in 3.0 mi NW 19.6 mph - N/A   Haze
11:53 AM 12.2 °F -4.8 °F 8.6 °F 85% 29.94 in 4.0 mi NW 17.3 mph - N/A   Haze
12:13 PM 12.2 °F -5.3 °F 6.8 °F 79% 29.95 in 7.0 mi NNW 18.4 mph - N/A   Overcast
12:32 PM 12.2 °F -5.3 °F 6.8 °F 79% 29.96 in 7.0 mi NW 18.4 mph - N/A   Overcast
12:53 PM 12.2 °F -4.3 °F 6.8 °F 79% 29.97 in 10.0 mi NW 16.1 mph - N/A   Mostly Cloudy
1:12 PM 12.2 °F -5.8 °F 6.8 °F 79% 29.96 in 7.0 mi NW 19.6 mph - N/A   Mostly Cloudy
1:33 PM 12.2 °F -5.3 °F 6.8 °F 79% 29.97 in 7.0 mi NW 18.4 mph - N/A   Scattered Clouds
1:52 PM 12.2 °F -4.8 °F 6.8 °F 79% 29.97 in 10.0 mi NW 17.3 mph - N/A   Scattered Clouds
2:13 PM 12.2 °F -3.7 °F 6.8 °F 79% 29.97 in 10.0 mi NW 15.0 mph - N/A   Clear
2:33 PM 12.2 °F -3.7 °F 6.8 °F 79% 29.98 in 10.0 mi NW 15.0 mph - N/A   Clear
2:53 PM 12.2 °F -4.3 °F 6.8 °F 79% 29.98 in 10.0 mi NW 16.1 mph - N/A   Clear
3:12 PM 12.2 °F -3.1 °F 6.8 °F 79% 29.99 in 10.0 mi NW 13.8 mph - N/A   Clear
3:33 PM 12.2 °F -4.3 °F 6.8 °F 79% 30.00 in 10.0 mi NW 16.1 mph - N/A   Clear
3:53 PM 10.4 °F -4.8 °F 6.8 °F 85% 30.00 in 10.0 mi NW 12.7 mph - N/A   Clear
4:12 PM 10.4 °F -4.8 °F 5.0 °F 79% 30.00 in 10.0 mi NW 12.7 mph - N/A   Clear
4:33 PM 10.4 °F -4.8 °F 5.0 °F 79% 30.01 in 10.0 mi NW 12.7 mph - N/A   Clear
5:13 PM 8.6 °F -6.3 °F 3.2 °F 79% 30.01 in 10.0 mi NW 11.5 mph - N/A   Clear
5:53 PM 6.8 °F -6.9 °F 3.2 °F 85% 30.02 in 10.0 mi NW 9.2 mph - N/A   Clear
6:13 PM 6.8 °F -7.8 °F 1.4 °F 79% 30.02 in 10.0 mi NW 10.4 mph - N/A   Clear
6:32 PM 6.8 °F -4.8 °F 1.4 °F 79% 30.03 in 10.0 mi NNW 6.9 mph - N/A   Clear
6:53 PM 6.8 °F -3.5 °F 1.4 °F 79% 30.03 in 10.0 mi NNW 5.8 mph - N/A   Scattered Clouds
7:12 PM 6.8 °F -3.5 °F 1.4 °F 79% 30.04 in 10.0 mi WNW 5.8 mph - N/A   Overcast
7:33 PM 6.8 °F -3.5 °F 3.2 °F 85% 30.03 in 10.0 mi NNW 5.8 mph - N/A   Overcast
7:53 PM 8.6 °F -1.3 °F 3.2 °F 79% 30.03 in 10.0 mi NNW 5.8 mph - N/A   Overcast
8:13 PM 8.6 °F -1.3 °F 3.2 °F 79% 30.03 in 10.0 mi NNW 5.8 mph - N/A   Overcast
8:32 PM 8.6 °F -1.3 °F 3.2 °F 79% 30.03 in 10.0 mi North 5.8 mph - N/A   Overcast
8:52 PM 8.6 °F 0.1 °F 5.0 °F 85% 30.03 in 10.0 mi North 4.6 mph - N/A   Overcast
9:13 PM 8.6 °F 0.1 °F 5.0 °F 85% 30.02 in 10.0 mi North 4.6 mph - N/A   Overcast
9:32 PM 8.6 °F - 3.2 °F 79% 30.03 in 10.0 mi Calm Calm - N/A   Overcast
9:53 PM 10.4 °F 4.0 °F 5.0 °F 79% 30.03 in 10.0 mi West 3.5 mph - N/A   Overcast
10:12 PM 10.4 °F - 5.0 °F 79% 30.03 in 10.0 mi Calm Calm - N/A   Overcast
10:33 PM 10.4 °F - 3.2 °F 73% 30.03 in 10.0 mi Calm Calm - N/A   Overcast
10:52 PM 10.4 °F - 5.0 °F 79% 30.03 in 10.0 mi Calm Calm - N/A   Overcast
11:12 PM 10.4 °F - 5.0 °F 79% 30.03 in 10.0 mi Calm Calm - N/A   Overcast
11:32 PM 10.4 °F - 5.0 °F 79% 30.03 in 10.0 mi Calm Calm - N/A   Overcast
11:52 PM 10.4 °F 4.0 °F 6.8 °F 85% 30.04 in 10.0 mi South 3.5 mph - N/A   Overcast